FW9606 Weather Reports


time (UTC)temp
C
wind
direction
speed
KPH
gust
KPH
rain 1hr
cm
rain 24hr
cm
rain mn
cm
humidity
%
barometer
mb
20260506094547 10 140 3.2 17.7 0.00 0.00 0.00 64 1016.8
20260506093051 10 174 4.8 12.9 0.00 0.00 0.00 65 1017.0
20260506091552 10 100 4.8 11.3 0.00 0.00 0.00 68 1017.0
20260506090054 8 196 6.4 14.5 0.00 0.00 0.00 71 1017.3
20260506084602 7 0 6.4 14.5 0.00 0.00 0.00 75 1017.2
20260506083050 6 157 6.4 14.5 0.00 0.00 0.00 79 1017.3
20260506081544 6 143 1.6 9.7 0.00 0.00 0.00 78 1017.3
20260506073054 5 74 0.0 3.2 0.00 0.00 0.00 79 1017.3
20260506071553 5 0 0.0 3.2 0.00 0.00 0.00 81 1017.3
20260506061555 3 0 0.0 0.0 0.00 0.00 0.00 89 1017.4
20260506050105 2 344 1.6 6.4 0.00 0.00 0.00 89 1017.6
20260506044551 1 0 0.0 3.2 0.00 0.00 0.00 89 1017.6
20260506043043 1 0 0.0 0.0 0.00 0.00 0.00 88 1017.5
20260506041551 1 0 0.0 0.0 0.00 0.00 0.00 86 1017.4
20260506040100 2 0 0.0 1.6 0.00 0.00 0.00 85 1017.5
20260506034550 2 0 0.0 0.0 0.00 0.00 0.00 85 1017.5
20260506033047 2 0 0.0 1.6 0.00 0.00 0.00 84 1017.4
20260506031552 2 0 0.0 3.2 0.00 0.00 0.00 84 1017.6
20260506030055 2 0 0.0 1.6 0.00 0.00 0.00 84 1017.6
20260506024557 2 332 0.0 3.2 0.00 0.00 0.00 83 1017.6
20260506023050 2 0 0.0 3.2 0.00 0.00 0.00 83 1017.6
20260506021559 2 302 0.0 3.2 0.00 0.00 0.00 82 1017.8
20260506020044 2 0 0.0 3.2 0.00 0.00 0.00 82 1017.7
20260506014551 2 302 0.0 1.6 0.00 0.00 0.00 81 1017.8
20260506013057 2 0 0.0 0.0 0.00 0.00 0.00 81 1017.9
20260506011603 2 0 0.0 1.6 0.00 0.00 0.00 82 1018.1
20260506010050 2 0 0.0 3.2 0.00 0.00 0.00 81 1018.1
20260506004553 2 0 0.0 1.6 0.00 0.00 0.00 82 1018.1
20260506003054 2 0 0.0 3.2 0.00 0.00 0.00 82 1018.2
20260506001552 2 0 0.0 0.0 0.00 0.00 0.00 82 1018.2
20260506000057 2 0 0.0 3.2 0.00 0.00 0.00 82 1018.3
20260505234602 2 0 0.0 0.0 0.00 0.00 0.00 82 1018.3
20260505233053 2 0 0.0 0.0 0.00 0.00 0.00 81 1018.3
20260505231605 2 0 0.0 0.0 0.00 0.00 0.00 82 1018.4
20260505230050 3 0 0.0 1.6 0.00 0.00 0.00 82 1018.5
20260505224544 3 0 0.0 0.0 0.00 0.00 0.00 81 1018.3
20260505223057 3 0 0.0 0.0 0.00 0.00 0.00 81 1018.3
20260505221557 3 0 0.0 0.0 0.00 0.00 0.00 81 1018.3
20260505220052 4 0 0.0 3.2 0.00 0.00 0.00 81 1018.3
20260505214612 4 0 0.0 4.8 0.00 0.00 0.00 80 1018.4
20260505213057 5 48 3.2 6.4 0.00 0.00 0.00 80 1018.3
20260505211545 5 0 1.6 4.8 0.00 0.00 0.00 79 1018.4
20260505210047 5 49 1.6 6.4 0.00 0.00 0.00 79 1018.4
20260505204551 5 0 1.6 9.7 0.00 0.00 0.00 78 1018.5
20260505203053 5 94 1.6 14.5 0.00 0.00 0.00 77 1018.4
20260505201554 5 92 4.8 11.3 0.00 0.00 0.00 76 1018.3
20260505200059 6 102 6.4 14.5 0.00 0.00 0.00 75 1018.2
20260505194559 6 86 4.8 9.7 0.00 0.00 0.00 75 1018.2
20260505193046 6 103 4.8 12.9 0.00 0.00 0.00 75 1018.1
20260505191551 6 102 3.2 14.5 0.00 0.00 0.00 76 1018.1
20260505190047 6 90 4.8 14.5 0.00 0.00 0.00 75 1018.1
20260505184545 6 104 1.6 9.7 0.00 0.00 0.00 75 1017.9
20260505183103 6 102 3.2 12.9 0.00 0.00 0.00 75 1018.1
20260505181551 6 75 3.2 16.1 0.00 0.00 0.00 74 1018.0
20260505180052 7 124 6.4 17.7 0.00 0.00 0.00 74 1018.0
20260505174558 7 105 6.4 12.9 0.00 0.00 0.00 73 1017.9
20260505173051 7 132 3.2 16.1 0.00 0.00 0.00 73 1018.0
20260505171551 7 112 6.4 17.7 0.00 0.00 0.00 74 1018.0
20260505170057 8 111 4.8 22.5 0.00 0.00 0.00 73 1017.9
20260505164551 8 119 1.6 16.1 0.00 0.00 0.00 72 1017.7
20260505163048 9 119 4.8 14.5 0.00 0.00 0.00 69 1017.7
20260505161557 10 111 4.8 19.3 0.00 0.00 0.00 69 1017.7
20260505153059 10 97 8.0 20.9 0.00 0.00 0.00 72 1017.5
20260505151548 9 68 8.0 19.3 0.00 0.00 0.00 75 1017.5
20260505140111 8 125 4.8 16.1 0.00 0.00 0.00 78 1017.2
20260505124602 11 32 8.0 19.3 0.00 0.00 0.00 64 1016.9
20260505123056 11 27 12.9 17.7 0.00 0.00 0.00 65 1016.9
20260505121559 11 37 8.0 17.7 0.00 0.00 0.00 66 1016.8
20260505120053 11 355 14.5 22.5 0.00 0.00 0.00 65 1016.7
20260505114557 10 9 12.9 22.5 0.00 0.00 0.00 67 1016.7
20260505113059 10 19 12.9 25.7 0.00 0.00 0.00 69 1016.7
20260505111547 10 36 12.9 25.7 0.00 0.00 0.00 71 1016.8
20260505101553 10 33 14.5 29.0 0.00 0.00 0.00 78 1016.4
20260505100049 8 101 14.5 27.4 0.00 0.00 0.00 83 1016.3